GW2693 Weather Reports


Display with metric or nautical units.
time (UTC)temp
F
wind
direction
speed
MPH
gust
MPH
rain 1hr
in
rain 24hr
in
rain mn
in
humidity
%
barometer
mb
20260504110549 59 221 1.0 1.0 0.00 0.00 0.00 92 1012.2
20260504100511 59 114 0.0 0.0 0.00 0.00 0.00 90 1012.2
20260504081904 60 174 1.0 1.0 0.00 0.00 0.00 88 1013.0
20260504081401 60 142 0.0 0.0 0.00 0.00 0.00 87 1013.3
20260504080856 60 110 0.0 0.0 0.00 0.00 0.00 87 1013.0
20260504080354 60 116 0.0 0.0 0.00 0.00 0.00 87 1013.3
20260504070321 63 110 0.0 0.0 0.00 0.00 0.00 83 1014.2
20260504060241 64 226 0.0 0.0 0.00 0.00 0.00 79 1014.8
20260504050710 65 136 3.0 6.0 0.00 0.00 0.00 77 1014.9
20260504050206 65 201 2.0 2.0 0.00 0.00 0.00 77 1015.2
20260504045703 64 109 2.0 2.0 0.00 0.00 0.00 77 1014.9
20260504045158 65 218 2.0 3.0 0.00 0.00 0.00 77 1015.2
20260504044656 65 189 2.0 2.0 0.00 0.00 0.00 76 1015.1
20260504044153 65 169 2.0 3.0 0.00 0.00 0.00 76 1015.3
20260504043650 65 185 1.0 1.0 0.00 0.00 0.00 75 1015.4
20260504043147 65 206 2.0 2.0 0.00 0.00 0.00 75 1015.3
20260504042644 65 193 0.0 0.0 0.00 0.00 0.00 75 1015.2
20260504042140 65 186 3.0 3.0 0.00 0.00 0.00 75 1015.5
20260504041636 65 159 1.0 1.0 0.00 0.00 0.00 74 1015.5
20260504041133 65 105 1.0 1.0 0.00 0.00 0.00 74 1015.3
20260504040630 65 180 3.0 3.0 0.00 0.00 0.00 74 1015.2
20260504040127 65 184 1.0 1.0 0.00 0.00 0.00 74 1015.4
20260504035623 65 176 3.0 3.0 0.00 0.00 0.00 74 1015.5
20260504035120 65 178 3.0 3.0 0.00 0.00 0.00 73 1015.4
20260504034618 66 199 2.0 3.0 0.00 0.00 0.00 73 1015.3
20260504034114 66 162 3.0 3.0 0.00 0.00 0.00 72 1015.3
20260504033613 66 195 4.0 4.0 0.00 0.00 0.00 72 1015.2
20260504033110 66 219 1.0 1.0 0.00 0.00 0.00 72 1015.2
20260504032606 66 154 2.0 3.0 0.00 0.00 0.00 72 1015.6
20260504032103 66 206 2.0 2.0 0.00 0.00 0.00 72 1015.5
20260504031601 66 120 1.0 1.0 0.00 0.00 0.00 72 1015.3
20260504031056 66 147 1.0 1.0 0.00 0.00 0.00 72 1015.2
20260504030554 66 207 0.0 1.0 0.00 0.00 0.00 72 1015.0
20260504030050 66 170 2.0 2.0 0.00 0.00 0.00 71 1015.3
20260504025547 67 163 1.0 2.0 0.00 0.00 0.00 70 1015.1
20260504025044 67 183 1.0 1.0 0.00 0.00 0.00 69 1015.0
20260504024541 67 163 0.0 0.0 0.00 0.00 0.00 69 1015.2
20260504024038 67 151 1.0 2.0 0.00 0.00 0.00 68 1015.1
20260504023534 68 173 0.0 0.0 0.00 0.00 0.00 68 1015.3
20260504023030 68 152 1.0 1.0 0.00 0.00 0.00 66 1015.3
20260504022526 68 162 2.0 3.0 0.00 0.00 0.00 66 1015.2
20260504022023 68 141 3.0 4.0 0.00 0.00 0.00 65 1015.0
20260504021521 68 221 1.0 2.0 0.00 0.00 0.00 64 1014.5
20260504021017 68 216 3.0 4.0 0.00 0.00 0.00 64 1014.5
20260504020514 68 203 2.0 3.0 0.00 0.00 0.00 64 1014.4
20260504020011 67 199 1.0 2.0 0.00 0.00 0.00 64 1014.5
20260504015507 66 206 0.0 0.0 0.00 0.00 0.00 67 1014.5
20260504015003 68 91 0.0 0.0 0.00 0.00 0.00 67 1014.3
20260504014459 68 110 0.0 0.0 0.00 0.00 0.00 65 1014.3
20260504013956 69 124 0.0 0.0 0.00 0.00 0.00 61 1014.2
20260504013455 69 148 0.0 0.0 0.00 0.00 0.00 61 1014.2
20260504012950 69 116 0.0 0.0 0.00 0.00 0.00 62 1013.9
20260504012449 70 102 0.0 0.0 0.00 0.00 0.00 62 1014.1
20260504011946 70 107 0.0 0.0 0.00 0.00 0.00 60 1013.9
20260504011442 71 123 0.0 0.0 0.00 0.00 0.00 58 1013.9
20260504010938 72 179 0.0 1.0 0.00 0.00 0.00 56 1014.0
20260504010434 72 176 0.0 0.0 0.00 0.00 0.00 53 1014.1
20260504005931 73 180 0.0 1.0 0.00 0.00 0.00 51 1014.0
20260504005427 73 159 2.0 2.0 0.00 0.00 0.00 50 1014.1
20260504004925 74 136 1.0 1.0 0.00 0.00 0.00 49 1014.0
20260504004423 74 200 0.0 0.0 0.00 0.00 0.00 48 1014.1
20260504003919 75 149 0.0 0.0 0.00 0.00 0.00 47 1014.0
20260504003416 76 120 1.0 1.0 0.00 0.00 0.00 46 1014.3
20260504002913 76 142 2.0 2.0 0.00 0.00 0.00 45 1014.2
20260504002409 77 210 3.0 3.0 0.00 0.00 0.00 44 1014.3
20260504001907 77 221 3.0 3.0 0.00 0.00 0.00 43 1014.4
20260504001405 77 198 1.0 3.0 0.00 0.00 0.00 43 1014.4
20260504000901 78 154 1.0 1.0 0.00 0.00 0.00 41 1014.6
20260504000358 78 209 2.0 3.0 0.00 0.00 0.00 42 1014.7
20260503235855 78 149 0.0 0.0 0.00 0.00 0.00 42 1014.6
20260503235353 78 233 7.0 7.0 0.00 0.00 0.00 40 1014.7
20260503234850 79 181 3.0 6.0 0.00 0.00 0.00 41 1014.6
20260503234348 79 255 5.0 7.0 0.00 0.00 0.00 39 1014.5
20260503233845 79 212 4.0 8.0 0.00 0.00 0.00 40 1014.4
20260503233342 79 169 2.0 2.0 0.00 0.00 0.00 41 1014.5
20260503232838 78 163 4.0 7.0 0.00 0.00 0.00 41 1014.7
20260503232335 79 182 4.0 7.0 0.00 0.00 0.00 39 1014.7
20260503231827 80 150 3.0 3.0 0.00 0.00 0.00 39 1014.5
20260503231324 80 197 3.0 4.0 0.00 0.00 0.00 39 1014.5
20260503230820 80 208 4.0 4.0 0.00 0.00 0.00 38 1014.4
20260503230317 80 219 6.0 7.0 0.00 0.00 0.00 39 1014.6
20260503225815 79 130 2.0 2.0 0.00 0.00 0.00 41 1014.9
20260503225311 78 148 2.0 3.0 0.00 0.00 0.00 40 1014.8
20260503224807 79 222 6.0 8.0 0.00 0.00 0.00 39 1014.9
20260503224305 79 216 4.0 4.0 0.00 0.00 0.00 39 1014.9
20260503223802 78 234 6.0 7.0 0.00 0.00 0.00 40 1015.1
20260503223300 78 212 4.0 6.0 0.00 0.00 0.00 39 1015.1
20260503222755 79 175 7.0 8.0 0.00 0.00 0.00 37 1015.1
20260503222254 79 230 3.0 3.0 0.00 0.00 0.00 38 1014.9
20260503221752 80 209 5.0 7.0 0.00 0.00 0.00 36 1015.2
20260503221249 80 224 3.0 6.0 0.00 0.00 0.00 37 1015.3
20260503220745 80 190 3.0 4.0 0.00 0.00 0.00 37 1015.2
20260503220243 80 143 2.0 3.0 0.00 0.00 0.00 37 1015.6
20260503215739 80 147 4.0 4.0 0.00 0.00 0.00 39 1015.5
20260503215236 79 220 4.0 7.0 0.00 0.00 0.00 39 1015.3
20260503214735 80 218 7.0 8.0 0.00 0.00 0.00 38 1015.4
20260503214231 79 235 5.0 7.0 0.00 0.00 0.00 38 1015.6
20260503213729 80 211 7.0 9.0 0.00 0.00 0.00 36 1015.6
20260503213226 80 149 3.0 4.0 0.00 0.00 0.00 38 1015.9
20260503212723 79 93 4.0 7.0 0.00 0.00 0.00 38 1016.3
20260503212221 80 54 0.0 1.0 0.00 0.00 0.00 39 1016.0
20260503211718 79 168 5.0 7.0 0.00 0.00 0.00 39 1016.2
20260503211214 79 204 4.0 6.0 0.00 0.00 0.00 41 1016.3
20260503210709 80 245 6.0 8.0 0.00 0.00 0.00 40 1016.4
20260503210207 80 139 1.0 2.0 0.00 0.00 0.00 40 1016.5
20260503205703 80 225 6.0 7.0 0.00 0.00 0.00 37 1016.6
20260503205158 79 204 3.0 3.0 0.00 0.00 0.00 38 1016.8
20260503204655 79 192 6.0 8.0 0.00 0.00 0.00 40 1016.8
20260503204153 79 150 2.0 7.0 0.00 0.00 0.00 40 1016.9
20260503203650 79 149 2.0 2.0 0.00 0.00 0.00 42 1017.0
20260503203148 79 185 3.0 4.0 0.00 0.00 0.00 42 1017.1
20260503202644 79 220 6.0 7.0 0.00 0.00 0.00 42 1017.0
20260503202143 79 221 3.0 4.0 0.00 0.00 0.00 42 1017.3
20260503201641 79 96 1.0 1.0 0.00 0.00 0.00 42 1017.2
20260503201138 79 61 1.0 1.0 0.00 0.00 0.00 41 1017.2
20260503200633 78 197 2.0 4.0 0.00 0.00 0.00 42 1017.3
20260503200130 79 256 6.0 7.0 0.00 0.00 0.00 41 1017.4
20260503195627 79 102 4.0 4.0 0.00 0.00 0.00 41 1017.6
20260503195123 79 130 4.0 4.0 0.00 0.00 0.00 38 1017.6
20260503194621 79 88 1.0 1.0 0.00 0.00 0.00 42 1017.6
20260503194116 79 203 6.0 7.0 0.00 0.00 0.00 42 1017.8
20260503193613 78 190 0.0 1.0 0.00 0.00 0.00 41 1017.9
20260503193109 78 211 5.0 7.0 0.00 0.00 0.00 41 1017.7
20260503192605 78 148 2.0 3.0 0.00 0.00 0.00 42 1017.9
20260503192101 78 83 3.0 3.0 0.00 0.00 0.00 42 1017.8
20260503191557 78 148 6.0 8.0 0.00 0.00 0.00 42 1018.2
20260503191053 77 136 4.0 4.0 0.00 0.00 0.00 45 1018.1
20260503190550 77 206 4.0 6.0 0.00 0.00 0.00 44 1018.3
20260503190048 78 219 6.0 7.0 0.00 0.00 0.00 43 1018.6
20260503185539 77 267 2.0 4.0 0.00 0.00 0.00 43 1018.6
20260503185039 77 190 4.0 7.0 0.00 0.00 0.00 44 1018.6
20260503184535 77 151 2.0 3.0 0.00 0.00 0.00 43 1018.7
20260503184032 77 220 4.0 7.0 0.00 0.00 0.00 46 1018.7
20260503183528 77 274 6.0 8.0 0.00 0.00 0.00 44 1018.7
20260503183025 78 222 2.0 4.0 0.00 0.00 0.00 43 1019.0
20260503182524 77 230 2.0 3.0 0.00 0.00 0.00 44 1018.9
20260503182021 77 271 6.0 7.0 0.00 0.00 0.00 44 1019.0
20260503181518 77 243 4.0 4.0 0.00 0.00 0.00 43 1019.1
20260503181014 76 100 4.0 4.0 0.00 0.00 0.00 42 1019.3
20260503180512 77 221 6.0 7.0 0.00 0.00 0.00 41 1019.4
20260503180009 77 194 3.0 3.0 0.00 0.00 0.00 45 1019.4
20260503175507 76 148 4.0 4.0 0.00 0.00 0.00 44 1019.6
20260503175003 76 231 5.0 7.0 0.00 0.00 0.00 45 1019.7
20260503174501 77 204 8.0 10.0 0.00 0.00 0.00 44 1019.4
20260503173956 77 207 6.0 8.0 0.00 0.00 0.00 42 1019.9
20260503173452 77 154 2.0 2.0 0.00 0.00 0.00 41 1020.2
20260503172949 77 74 0.0 1.0 0.00 0.00 0.00 46 1019.7
20260503172446 76 215 5.0 8.0 0.00 0.00 0.00 47 1020.2
20260503171943 75 250 6.0 8.0 0.00 0.00 0.00 46 1020.1
20260503171439 75 249 6.0 7.0 0.00 0.00 0.00 49 1020.2
20260503170937 75 221 5.0 7.0 0.00 0.00 0.00 47 1020.3
20260503170433 75 234 10.0 10.0 0.00 0.00 0.00 46 1020.4
20260503150825 72 217 2.0 3.0 0.00 0.00 0.00 55 1020.5
20260503150321 72 168 4.0 6.0 0.00 0.00 0.00 56 1020.7
20260503140246 69 208 2.0 2.0 0.00 0.00 0.00 65 1020.2
20260503131215 57 61 0.0 0.0 0.00 0.00 0.00 99 1020.0
20260503130713 56 61 0.0 0.0 0.00 0.00 0.00 99 1020.1
20260503130210 55 61 0.0 0.0 0.00 0.00 0.00 99 1019.9
20260503120136 47 61 0.0 0.0 0.00 0.00 0.00 99 1019.7